Location: Albany
(35.0000°S, 118.0000°E)
Time: 11:45:18
(UTC-04:00)

SJ-6B - Visible Passes

Search period start: 25 June 2017 00:00
Search period end: 05 July 2017 00:00
Orbit: 510 x 585 km, 97.7° (Epoch: 25 June)

Date Brightness Start Highest point End Pass type
(mag) Time Alt. Az. Time Alt. Az. Time Alt. Az.
29 Jun 4.4 18:42:33 10° NE 18:46:22 39° ESE 18:50:17 10° S visible
30 Jun 4.6 18:37:42 10° NE 18:41:25 34° ESE 18:45:14 10° S visible
01 Jul 4.9 18:32:53 10° NE 18:36:29 30° ESE 18:40:10 10° S visible
02 Jul 5.1 18:28:05 10° NE 18:31:33 26° ESE 18:35:05 10° SSE visible
03 Jul 5.3 18:23:19 10° ENE 18:26:37 23° ESE 18:29:58 10° SSE visible
04 Jul 5.5 18:18:36 10° ENE 18:21:42 21° ESE 18:24:49 10° SSE visible
